User: anonymous   Login
Location: Csohesd
(46.2500°N, 22.6167°E)
Time: 18:15:38
(UTC+00:00)
Language:

SL-19 R/B - Orbit

View from above orbital plane
View from above orbital plane
View from above satellite
View from above satellite

Ground track
Ground track

The orbit data is extracted from the following two-line orbital elements,

1 36589U 10023B   22019.17700569 -.00000036  00000-0  19631-4 0  9990
2 36589 100.5561 207.3252 0224947 294.0229 173.9469 13.58402407577077
Epoch (UTC): 19 January 2022 04:14:53
Eccentricity: 0.0224947
inclination: 100.5561°
perigee height: 874 km
apogee height: 1208 km
right ascension of ascending node: 207.3252°
argument of perigee: 294.0229°
revolutions per day: 13.58402407
mean anomaly at epoch: 173.9469°
orbit number at epoch: 57707

The dashed part of the orbit path shows where the satellite is in the earth's shadow,  

DLR